Punta Gorda, FL

1:27 PM EDT on March 27, 2017 (GMT -0400)
Charlotte County

Weather History for KPGD - February, 2012

Change the Weather History Date:

Thursday, February 2, 2012

  Actual Average Record
Temperature  
Mean Temperature 69 °F -  
Max Temperature 81 °F 72 °F 86 °F (2014)
Min Temperature 57 °F 50 °F 37 °F (2003)
Cooling Degree Days 4    
Growing Degree Days 19 (Base 50)    
Moisture  
Dew Point 60 °F    
Average Humidity 81    
Maximum Humidity 100    
Minimum Humidity 47    
Precipitation  
Precipitation 0.00 in - - ()
Sea Level Pressure  
Sea Level Pressure 30.17 in    
Wind  
Wind Speed 3 mph (East)    
Max Wind Speed 9 mph    
Max Gust Speed -    
Visibility 8 miles    
Events      
Averages and records for this station are not official NWS values.
T = Trace of Precipitation, MM = Missing Value Source: NWS Daily Summary

Daily Weather History Graph

Daily Weather History Graph

Search for Another Location

Airport or City:

Trip Planner

Search our weather history database for the weather conditions in past years. The results will help you decide how hot, cold, wet, or windy it might be!

Date:

Astronomy

Feb. 02, 2012 Rise Set
Actual Time 7:13 AM EST 6:10 PM EST
Civil Twilight 6:48 AM EST 6:34 PM EST
Nautical Twilight 6:21 AM EST 7:02 PM EST
Astronomical Twilight 5:53 AM EST 7:29 PM EST
Moon 1:31 PM EST (2/2) 2:44 AM EST (2/2)
Length of Visible Light 11h 45m
Length of Day
10h 57m
Waxing Gibbous, 73% of the Moon is Illuminated
Feb 2
Waxing Gibbous
Feb 7
Full
Feb 14
Last Quarter
Feb 21
New
Feb 29
First Quarter

Hourly Weather History & Observations

Time (EST) Temp. Heat Index Dew Point Humidity Pressure Visibility Wind Dir Wind Speed Gust Speed Precip Events Conditions
12:53 AM 62.1 °F - 57.0 °F 84% 30.19 in 10.0 mi NE 4.6 mph - N/A   Clear
1:53 AM 61.0 °F - 57.0 °F 87% 30.19 in 10.0 mi NNE 3.5 mph - N/A   Clear
2:53 AM 60.1 °F - 57.0 °F 90% 30.18 in 10.0 mi NNE 3.5 mph - N/A   Clear
3:53 AM 59.0 °F - 57.0 °F 93% 30.19 in 10.0 mi Calm Calm - N/A   Clear
4:53 AM 57.9 °F - 55.9 °F 93% 30.18 in 7.0 mi Calm Calm - N/A   Clear
5:53 AM 57.0 °F - 55.0 °F 93% 30.18 in 10.0 mi East 3.5 mph - N/A   Clear
6:53 AM 59.0 °F - 57.0 °F 93% 30.19 in 7.0 mi East 4.6 mph - N/A   Clear
7:39 AM 59.0 °F - 57.2 °F 94% 30.19 in 2.5 mi ENE 3.5 mph - N/A   Clear
7:53 AM 59.0 °F - 57.0 °F 93% 30.19 in 3.0 mi East 3.5 mph - N/A   Partly Cloudy
8:02 AM 60.8 °F - 57.2 °F 88% 30.19 in 4.0 mi East 3.5 mph - N/A   Scattered Clouds
8:12 AM 60.8 °F - 59.0 °F 94% 30.19 in 4.0 mi Calm Calm - N/A   Mostly Cloudy
8:26 AM 60.8 °F - 60.8 °F 100% 30.19 in 4.0 mi East 3.5 mph - N/A   Mostly Cloudy
8:45 AM 62.6 °F - 60.8 °F 94% 30.19 in 6.0 mi ENE 3.5 mph - N/A   Scattered Clouds
8:53 AM 64.0 °F - 62.1 °F 93% 30.19 in 7.0 mi East 3.5 mph - N/A   Partly Cloudy
9:53 AM 72.0 °F - 64.9 °F 78% 30.19 in 10.0 mi Calm Calm - N/A   Clear
10:53 AM 78.1 °F - 64.0 °F 62% 30.19 in 10.0 mi South 5.8 mph - N/A   Clear
11:53 AM 79.0 °F - 61.0 °F 54% 30.18 in 10.0 mi SE 4.6 mph - N/A   Clear
12:53 PM 80.1 °F 80.7 °F 59.0 °F 48% 30.15 in 10.0 mi SE 3.5 mph - N/A   Clear
1:53 PM 81.0 °F 81.3 °F 59.0 °F 47% 30.13 in 10.0 mi Calm Calm - N/A   Clear
2:53 PM 79.0 °F - 63.0 °F 58% 30.11 in 10.0 mi WSW 8.1 mph - N/A   Overcast
3:53 PM 79.0 °F - 62.1 °F 56% 30.11 in 10.0 mi WNW 11.5 mph - N/A   Scattered Clouds
4:53 PM 75.9 °F - 63.0 °F 64% 30.12 in 10.0 mi WNW 9.2 mph - N/A   Mostly Cloudy
5:53 PM 73.9 °F - 62.1 °F 66% 30.12 in 10.0 mi WNW 4.6 mph - N/A   Clear
6:53 PM 71.1 °F - 61.0 °F 70% 30.14 in 10.0 mi WNW 3.5 mph - N/A   Clear
7:53 PM 70.0 °F - 61.0 °F 73% 30.15 in 10.0 mi Calm Calm - N/A   Clear
8:53 PM 66.0 °F - 61.0 °F 84% 30.18 in 10.0 mi ESE 5.8 mph - N/A   Clear
9:53 PM 66.0 °F - 61.0 °F 84% 30.18 in 10.0 mi ESE 3.5 mph - N/A   Clear
10:53 PM 66.0 °F - 62.1 °F 87% 30.19 in 10.0 mi East 5.8 mph - N/A   Clear
11:53 PM 66.9 °F - 63.0 °F 87% 30.17 in 10.0 mi ESE 5.8 mph - N/A   Clear